Terminal Aerodrome Forecast
Issued by NWS

Home | Current Version | Previous Version | Text Only | Print | Product List | Glossary On
Versions: 1 2 3 4 5 6 7 8 9 10 11 12
000
FTUS43 KFGF 282337
TAFTVF
TAF
KTVF 282337Z 2900/2924 23015KT P6SM VCTS BKN050CB
     FM290300 20011KT P6SM BKN100
     FM290500 35012G18KT P6SM VCSH BKN050
     FM291200 35019G27KT P6SM OVC025
      AMD LTD TO CLD VIS AND WIND=

USA.gov is the U.S. government's official web portal to all federal, state and local government web resources and services.